Location: Newark
(34.0131°N, 4.3314°W)
Time: 08:38:00
(UTC+00:00)

A-11 Canister half - Pass Details

Date: 25 October 2019
Orbit: 1514 x 1686 km, 47.2° (Epoch: 13 November)

Event Time Altitude Azimuth Distance (km) Brightness Sun altitude
Rises 06:02:33 0° 304° (WNW) 4,831 - -6.5°
Exits shadow 06:03:32 - 305° (NW) 4,525 10.9 -6.3°
Reaches altitude 10° 06:05:49 10° 308° (NW) 3,820 10.5 -5.8°
Maximum altitude 06:15:19 57° 26° (NNE) 1,790 9.5 -3.9°
Drops below altitude 10° 06:24:28 10° 104° (ESE) 3,693 13.2 -2.0°
Sets 06:27:33 0° 109° (ESE) 4,662 14.6 -1.4°
